#timestamp,LO_Frequency,Hit,StdDev 
1548514815.6,286046999.1,N
1548514835.5,286047000.6,N
1548514855.3,286046998.9,N
1548514875.1,286047000.8,N
1548514895.9,286047000.6,N
1548514915.7,286047000.3,N
1548514935.5,286047000.4,N
1548514955.4,286047000.1,N
1548514975.2,286046999.9,N
1548514995.1,286046999.8,N
1548514996.0,286046999.8,N
1548515015.8,286046999.8,N
1548515035.6,286047000.4,N
1548515055.5,286046998.4,N
1548515075.3,286046997.0,Y
1548515095.1,286046996.6,P
1548515115.9,286046999.3,N
1548515135.7,286046998.8,N
1548515155.6,286047000.8,N
1548515175.4,286046996.6,N
1548515195.2,286046997.2,N
1548515215.1,286046999.3,N
1548515216.0,286046999.3,N
1548515235.3,286047000.7,N
1548515255.2,286047004.8,Y
1548515275.9,286047007.9,P
1548515295.7,286047008.1,N
1548515315.6,286047006.5,N
1548515335.4,286047004.9,N
1548515355.2,286047003.0,N
1548515375.1,286047007.8,N
1548515376.0,286047007.8,N
1548515395.8,286047005.2,N
1548515415.7,286047002.5,N
1548515435.5,286046997.1,N
1548515455.3,286046995.1,N
1548515475.2,286046996.4,N
1548515495.0,286046992.0,N
1548515495.9,286046992.0,N
1548515515.8,286046992.3,N
1548515535.6,286046990.8,N
1548515555.4,286046989.4,N
1548515575.3,286046986.1,N
1548515595.1,286046986.7,N
1548515615.8,286046986.1,N
1548515665.7,286046986.7,E
1548515675.6,286046993.2,N
1548515695.5,286046999.1,P
1548515715.3,286046999.3,N
1548515735.1,286046998.2,N
1548515755.9,286047000.0,N
1548515775.7,286046998.5,N
1548515795.6,286047000.8,N
1548515815.4,286046998.9,N
1548515835.2,286046999.4,N
1548515855.1,286046996.9,N
1548515856.0,286046996.9,N
1548515875.8,286046996.5,N
1548515895.6,286046996.5,N
1548515915.5,286046997.6,N
1548515935.3,286046997.2,N
1548515955.2,286046995.3,N
1548515975.0,286046995.0,N
1548515975.9,286046995.0,N
1548515995.7,286046997.5,N
1548516015.6,286046997.2,N
1548516035.4,286046997.1,N
1548516055.3,286046997.0,N
1548516075.1,286046997.4,N
1548516095.8,286046999.3,N
1548516115.0,286046999.3,N
1548516115.9,286046999.3,N
1548516135.8,286046995.3,N
1548516155.6,286046997.6,N
1548516175.4,286046997.8,N
1548516195.3,286046995.9,N
1548516215.1,286046995.5,N
1548516235.8,286046997.5,N
1548516255.7,286046997.7,N
1548516275.5,286046997.5,N
1548516295.4,286046997.9,N
1548516315.2,286046999.1,N
1548516335.0,286046998.3,N
1548516335.9,286046998.3,N
1548516355.8,286047000.7,N
1548516375.6,286046999.4,N
1548516395.4,286046999.3,N
1548516415.3,286046999.6,N
1548516435.1,286046999.1,N
1548516455.9,286046996.6,N
1548516475.7,286046998.6,N
1548516495.5,286046998.5,N
1548516515.4,286046999.8,N
1548516535.2,286047002.8,N
1548516555.0,286047002.7,N
1548516555.9,286047002.7,N
1548516575.8,286047002.4,N
1548516595.6,286046998.4,N
1548516615.5,286047000.8,N
1548516635.3,286046998.2,N
1548516655.1,286047002.4,N
1548516675.9,286047002.2,N
1548516695.7,286047001.7,N
1548516715.5,286047001.4,N
1548516735.4,286047004.0,N
1548516755.2,286047002.5,N
1548516775.1,286047002.1,N
1548516776.0,286047002.1,N
1548516795.8,286047002.5,N
1548516815.6,286047002.3,N
1548516835.5,286046999.9,N
1548516855.3,286047002.0,N
1548516875.1,286047000.5,N
1548516895.9,286046999.8,N
1548516915.7,286047002.7,N
1548516935.6,286047000.5,N
1548516955.4,286047000.4,N
1548516975.2,286047002.5,N
1548516995.1,286047001.7,N
1548516996.0,286047001.7,N
1548517015.8,286047003.2,N
1548517035.7,286047004.2,N
1548517055.5,286047003.0,N
1548517075.3,286047004.3,Y
1548517095.2,286047001.5,P
1548517115.0,286047002.1,P
1548517115.9,286047002.1,P
1548517135.8,286047002.0,Y
1548517155.6,286047000.6,P
1548517175.4,286046999.7,N
1548517195.3,286047003.9,P
1548517215.1,286047003.0,N
1548517235.9,286047001.8,N
1548517255.7,286047001.7,N
1548517275.5,286047002.5,N
1548517295.4,286047001.5,N
1548517315.2,286047001.9,N
1548517335.0,286047004.0,Y
1548517335.9,286047004.0,P
1548517355.8,286047002.8,N
1548517375.6,286047002.3,N
1548517395.5,286047000.2,N
1548517415.3,286047000.2,N
1548517435.1,286047000.4,N
1548517455.9,286047000.2,N
1548517475.7,286047000.2,N
1548517495.6,286047000.3,N
1548517515.4,286047001.7,N
1548517535.2,286047003.4,N
1548517555.1,286047003.5,N
1548517575.4,286047006.0,Y
1548517595.3,286047003.2,P
1548517615.1,286047007.4,P
1548517616.0,286047007.4,P
1548517635.8,286047006.4,N
1548517655.7,286047006.7,N
1548517675.5,286047006.7,N
1548517695.3,286047007.6,Y
1548517715.2,286047000.7,P
1548517735.0,286047001.0,N
1548517735.9,286047001.0,N
1548517755.8,286046999.5,N
1548517775.6,286046998.5,N
1548517795.4,286047001.2,N
1548517815.3,286046998.1,N
1548517835.1,286046998.7,N
1548517855.8,286046999.3,N
1548517875.7,286046999.0,N
1548517895.5,286046999.0,N
1548517915.4,286046998.7,N
1548517935.2,286046999.6,N
1548517955.0,286046999.4,N
1548517955.9,286046999.4,N
1548517975.8,286046996.6,N
1548517995.6,286046996.7,N
1548518015.5,286046999.2,N
1548518035.3,286046996.9,N
1548518055.1,286046996.9,N
1548518075.9,286046997.4,N
1548518095.7,286046997.6,N
1548518115.5,286046994.9,N
1548518135.4,286046995.1,N
1548518155.2,286046996.7,N
1548518175.1,286046996.7,N
1548518176.0,286046996.7,N
1548518195.8,286046994.9,N
1548518215.6,286046995.0,N
1548518235.5,286046997.4,N
1548518255.3,286046997.6,N
1548518275.1,286046995.0,N
1548518295.9,286046995.7,N
1548518315.7,286046995.5,N
1548518335.6,286046997.4,N
1548518355.4,286046995.7,N
1548518375.2,286046994.9,Y
1548518395.1,286046998.8,P
1548518396.0,286046998.8,N
